Погода в Кировском

Россия / Астраханская область     45°50′47″N   48°07′34″E
темп.,
°C
ветер,
м/с
пор.,
м/с
влажн.,
%
обл.,
%
осадки,
мм/ч
давл.,
гПа
погр.,
м
17 апреля, сб
сб1701:00+14зюз33570 0.0 101943
04:00+14з225142 0.0 101915
07:00+14ссз2250100 0.0 101921
10:00+19ююз33376 0.0 1019473
13:00+20ююз5435100 0.0 1020691
16:00+18ююз5640100 0.0 1020321
19:00+15ююз3550100 0.0 1020152
22:00+14юз3458100 0.0 1020103
18 апреля, вс
вс1801:00+15зсз3652100 0.0 1019203
04:00+13ссв4681100 1.4 1020317
07:00+13ссв3587100 0.4 1020270
10:00+14ссв2283100 0.5 1020274
13:00+14ссв2276100 0.0 1019310
16:00+15юз2268100 0.1 1019364
19:00+15юз237297 0.1 101894
22:00+14зсз247699 0.1 101974
19 апреля, пн
пн1901:00+14зсз3674100 0.0 1019149
04:00+14ссз236976 0.0 101860
07:00+14св225841 0.0 101841
10:00+18вюв2240100 0.0 1018557
13:00+19ю3237100 0.0 1018974
16:00+19ю3235100 0.0 1018963
19:00+16ю3446100 0.0 1018224
22:00+15ю3654100 0.0 1018208
20 апреля, вт
вт2001:00+14ююв2455100 0.0 1017105
04:00+14вюв3554100 0.0 101689
07:00+15вюв5115192 0.0 1015388
10:00+18вюв81240100 0.0 1016707
13:00+20вюв91435100 0.0 1014823
16:00+20в9134194 0.0 1013719
19:00+16в71365100 0.0 1014334
22:00+16в91764100 0.0 1014509
21 апреля, ср
ср2101:00+16вюв122054100 0.0 1015791
04:00+14вюв101760100 0.0 1017734
07:00+13вюв101661100 0.0 1019804
10:00+11юв81384100 3.0 1020550
13:00+11вюв71485100 2.3 1021585
16:00+13вюв71366100 2.3 1021605
19:00+13вюв61365100 0.0 1021498
22:00+14вюв71551100 0.0 1021502